Wilmington, NC

2:39 AM EDT on April 27, 2017 (GMT -0400)
Wilmington International

Weather History for KILM - November, 2012

Change the Weather History Date:

Tuesday, November 13, 2012

  Actual Average Record
Temperature  
Mean Temperature 58 °F 58 °F  
Max Temperature 69 °F 69 °F 83 °F (1879)
Min Temperature 46 °F 46 °F 29 °F (1976)
Degree Days  
Heating Degree Days 7 8  
Month to date heating degree days 160 91  
Since 1 July heating degree days 248 188  
Cooling Degree Days 0 1  
Month to date cooling degree days 0 13  
Year to date cooling degree days 2169 2027  
Growing Degree Days 8 (Base 50)    
Moisture  
Dew Point 57 °F    
Average Humidity 91    
Maximum Humidity 100    
Minimum Humidity 81    
Precipitation  
Precipitation 0.84 in 0.11 in 1.84 in (2008)
Month to date precipitation 1.32 1.36  
Year to date precipitation 42.75 52.06  
Snow  
Snow 0.00 in 0.00 in - ()
Month to date snowfall 0.0 0.0  
Since 1 July snowfall 0.0 0.0  
Since 1 September snowfall 0.0  
Snow Depth 0.00 in    
Sea Level Pressure  
Sea Level Pressure 30.23 in    
Wind  
Wind Speed 9 mph (North)    
Max Wind Speed 20 mph    
Max Gust Speed 26 mph    
Visibility 7 miles    
Events Fog , Rain    
T = Trace of Precipitation, MM = Missing Value Source: NWS Daily Summary

Daily Weather History Graph

Daily Weather History Graph

Search for Another Location

Airport or City:

Trip Planner

Search our weather history database for the weather conditions in past years. The results will help you decide how hot, cold, wet, or windy it might be!

Date:

Astronomy

Nov. 13, 2012 Rise Set
Actual Time 6:43 AM EST 5:08 PM EST
Civil Twilight 6:16 AM EST 5:34 PM EST
Nautical Twilight 5:46 AM EST 6:05 PM EST
Astronomical Twilight 5:16 AM EST 6:34 PM EST
Moon 6:18 AM EST (11/13) 5:00 PM EST (11/13)
Length of Visible Light 11h 18m
Length of Day
10h 25m
Waning Crescent, 0% of the Moon is Illuminated
Nov 13
Waning Crescent
Nov 13
New
Nov 20
First Quarter
Nov 28
Full
Dec 6
Last Quarter

Hourly Weather History & Observations

Time (EST) Temp. Windchill Dew Point Humidity Pressure Visibility Wind Dir Wind Speed Gust Speed Precip Events Conditions
12:53 AM 64.0 °F - 60.1 °F 87% 30.20 in 10.0 mi SSW 3.5 mph - N/A   Clear
1:53 AM 62.1 °F - 59.0 °F 90% 30.19 in 10.0 mi SSE 3.5 mph - N/A   Clear
2:53 AM 60.1 °F - 57.9 °F 93% 30.18 in 7.0 mi Calm Calm - N/A   Clear
3:53 AM 60.1 °F - 59.0 °F 96% 30.17 in 7.0 mi Calm Calm - N/A   Clear
4:53 AM 59.0 °F - 57.9 °F 96% 30.18 in 9.0 mi Calm Calm - N/A   Clear
5:47 AM 57.2 °F - 57.2 °F 100% 30.19 in 1.5 mi Calm Calm - N/A   Mostly Cloudy
5:50 AM 57.2 °F - 57.2 °F 100% 30.19 in 0.8 mi Calm Calm - N/A   Mostly Cloudy
5:53 AM 57.9 °F - 55.9 °F 93% 30.19 in 0.5 mi Calm Calm - N/A Fog Fog
6:21 AM 57.2 °F - 57.2 °F 100% 30.19 in 1.5 mi Calm Calm - N/A   Mostly Cloudy
6:28 AM 57.2 °F - 55.4 °F 94% 30.19 in 2.5 mi Calm Calm - N/A   Mostly Cloudy
6:39 AM 57.2 °F - 55.4 °F 94% 30.19 in 3.0 mi Calm Calm - N/A   Mostly Cloudy
6:53 AM 57.9 °F - 57.0 °F 97% 30.21 in 9.0 mi SSW 4.6 mph - N/A   Mostly Cloudy
7:39 AM 64.4 °F - 62.6 °F 94% 30.22 in 1.8 mi SSW 11.5 mph - 0.04 in Rain Rain
7:43 AM 64.4 °F - 62.6 °F 94% 30.22 in 3.0 mi South 9.2 mph - 0.05 in Rain Rain
7:53 AM 64.0 °F - 62.1 °F 93% 30.22 in 7.0 mi SW 9.2 mph - 0.06 in Rain Light Rain
8:02 AM 64.4 °F - 62.6 °F 94% 30.23 in 1.8 mi SSE 9.2 mph - 0.03 in Rain Heavy Rain
8:11 AM 64.4 °F - 62.6 °F 94% 30.23 in 2.0 mi SE 5.8 mph - 0.06 in Rain Rain
8:24 AM 64.4 °F - 62.6 °F 94% 30.23 in 7.0 mi Calm Calm - 0.07 in Rain Light Rain
8:53 AM 64.9 °F - 62.1 °F 90% 30.23 in 10.0 mi SE 4.6 mph - 0.10 in   Overcast
9:09 AM 64.4 °F - 62.6 °F 94% 30.23 in 7.0 mi SSE 4.6 mph - 0.01 in Rain Light Rain
9:53 AM 64.9 °F - 62.1 °F 90% 30.24 in 10.0 mi SE 4.6 mph - 0.01 in   Overcast
10:53 AM 66.0 °F - 62.1 °F 87% 30.24 in 10.0 mi Calm Calm - 0.00 in   Overcast
11:16 AM 66.2 °F - 62.6 °F 88% 30.23 in 10.0 mi Calm Calm - N/A   Overcast
11:24 AM 68.0 °F - 62.6 °F 83% 30.23 in 10.0 mi Calm Calm - N/A   Overcast
11:53 AM 68.0 °F - 63.0 °F 84% 30.21 in 10.0 mi Calm Calm - N/A   Overcast
12:05 PM 68.0 °F - 62.6 °F 83% 30.21 in 10.0 mi North 4.6 mph - N/A   Overcast
12:21 PM 66.2 °F - 64.4 °F 94% 30.20 in 10.0 mi North 3.5 mph - N/A   Overcast
12:37 PM 64.4 °F - 60.8 °F 88% 30.21 in 1.8 mi NW 18.4 mph 21.9 mph 0.02 in Rain Rain
12:41 PM 62.6 °F - 60.8 °F 94% 30.21 in 0.8 mi NNW 13.8 mph - 0.06 in Rain Heavy Rain
12:53 PM 61.0 °F - 59.0 °F 93% 30.21 in 0.8 mi NNW 10.4 mph 16.1 mph 0.25 in Rain Heavy Rain
1:15 PM 59.0 °F - 57.2 °F 94% 30.21 in 1.0 mi NNW 12.7 mph - 0.32 in Rain Heavy Rain
1:20 PM 57.2 °F - 57.2 °F 100% 30.21 in 1.5 mi NNW 11.5 mph - 0.35 in Rain Heavy Rain
1:31 PM 57.2 °F - 57.2 °F 100% 30.21 in 2.5 mi NNW 8.1 mph - 0.37 in Rain Light Rain
1:38 PM 57.2 °F - 55.4 °F 94% 30.21 in 2.0 mi North 10.4 mph - 0.39 in Rain Rain
1:53 PM 57.9 °F - 57.0 °F 97% 30.21 in 2.5 mi North 10.4 mph - 0.41 in Rain Light Rain
2:48 PM 57.2 °F - 55.4 °F 94% 30.21 in 8.0 mi North 10.4 mph - 0.01 in Rain Light Rain
2:53 PM 57.9 °F - 55.9 °F 93% 30.21 in 8.0 mi North 10.4 mph - 0.01 in Rain Light Rain
3:02 PM 57.2 °F - 55.4 °F 94% 30.21 in 10.0 mi North 10.4 mph - 0.00 in   Overcast
3:53 PM 57.0 °F - 54.0 °F 89% 30.23 in 10.0 mi North 12.7 mph - 0.00 in   Overcast
4:53 PM 53.1 °F - 51.1 °F 93% 30.25 in 10.0 mi North 15.0 mph 23.0 mph N/A   Overcast
5:53 PM 52.0 °F - 48.9 °F 89% 30.27 in 10.0 mi NNE 11.5 mph - N/A   Overcast
6:53 PM 50.0 °F - 46.9 °F 89% 30.29 in 10.0 mi NNE 16.1 mph 24.2 mph N/A   Overcast
7:53 PM 50.0 °F - 46.9 °F 89% 30.31 in 10.0 mi NNE 12.7 mph - N/A   Overcast
8:53 PM 48.9 °F - 45.0 °F 86% 30.33 in 10.0 mi NNE 16.1 mph 23.0 mph N/A   Overcast
9:53 PM 48.9 °F - 45.0 °F 86% 30.33 in 10.0 mi NNE 21.9 mph 26.5 mph N/A   Overcast
10:24 PM 48.2 °F - 44.6 °F 87% 30.33 in 9.0 mi North 15.0 mph - N/A   Overcast
10:53 PM 46.9 °F - 44.1 °F 90% 30.33 in 9.0 mi North 13.8 mph 18.4 mph N/A   Overcast
11:53 PM 46.0 °F 40.2 °F 43.0 °F 89% 30.33 in 10.0 mi NNE 12.7 mph - N/A   Overcast